This is the latest recevied weather packets stored in our database for station/object AD8IZ-13. If no packets are shown the sender has not sent any weather packets the latest 10 day(s).
| Time | Temp. | Humidity | Pressure | Rain* | Wind** | Luminosity | Snow |
|---|---|---|---|---|---|---|---|
| 1777989920 | 17.78° C | 75% | 1008.1 hPa | 0 mm | - | 271 W/m² | - |
| 1777989321 | 17.78° C | 76% | 1008.2 hPa | 0 mm | - | 255 W/m² | - |
| 1777988721 | 17.78° C | 78% | 1008.2 hPa | 0 mm | - | 258 W/m² | - |
| 1777988118 | 17.22° C | 80% | 1008.2 hPa | 0 mm | - | 221 W/m² | - |
| 1777987518 | 16.67° C | 81% | 1008.2 hPa | 0 mm | - | 212 W/m² | - |
| 1777986918 | 16.11° C | 82% | 1008.2 hPa | 0 mm | - | 187 W/m² | - |
| 1777986321 | 16.11° C | 83% | 1008.3 hPa | 0.25 mm | - | 152 W/m² | - |
| 1777985718 | 16.11° C | 83% | 1008.3 hPa | 0.25 mm | - | 82 W/m² | - |
| 1777985119 | 15.56° C | 82% | 1008.3 hPa | 0.25 mm | - | 62 W/m² | - |
| 1777984520 | 15.56° C | 83% | 1008.1 hPa | 0.25 mm | - | 72 W/m² | - |
| 1777983920 | 15.56° C | 83% | 1007.6 hPa | 0.25 mm | - | 46 W/m² | - |
| 1777983319 | 15.56° C | 82% | 1007.6 hPa | 0.25 mm | - | 29 W/m² | - |
| 1777982720 | 16.11° C | 82% | 1007.5 hPa | 0 mm | - | 25 W/m² | - |
| 1777982119 | 16.11° C | 81% | 1007.5 hPa | 0 mm | - | 19 W/m² | - |
| 1777981519 | 16.11° C | 80% | 1007.5 hPa | 0 mm | - | 34 W/m² | - |
| 1777980920 | 16.11° C | 79% | 1007.5 hPa | 0 mm | - | 25 W/m² | - |
| 1777980317 | 16.11° C | 78% | 1007.7 hPa | 0 mm | - | 24 W/m² | - |
| 1777979720 | 16.11° C | 78% | 1007.6 hPa | 0 mm | - | 14 W/m² | - |
| 1777979120 | 16.11° C | 77% | 1007.6 hPa | 0 mm | - | 9 W/m² | - |
| 1777978520 | 16.67° C | 76% | 1007.5 hPa | 0 mm | - | 8 W/m² | - |
| 1777977917 | 16.67° C | 76% | 1007.4 hPa | 0 mm | - | 3 W/m² | - |
| 1777977318 | 16.67° C | 75% | 1007.4 hPa | 0 mm | - | 1 W/m² | - |
| 1777976718 | 16.67° C | 74% | 1007.5 hPa | 0 mm | - | 0 W/m² | - |
| 1777976121 | 16.67° C | 74% | 1007.6 hPa | 0 mm | - | 0 W/m² | - |
| 1777975518 | 17.22° C | 73% | 1007.4 hPa | 0 mm | - | 0 W/m² | - |
* Rain latest hour (hover to see other rain measurements)
** Current wind speed in m/s (hover to see current wind gust speed)